Location: Cran-Gévrier
(45.9039°N, 6.1012°E)
Time: 10:35:25
(UTC+00:00)

Cosmos 1606 - Pass Details

Date: 09 February 2023
Orbit: 488 x 510 km, 82.5° (Epoch: 20 March)

Event Time Altitude Azimuth Distance (km) Brightness Sun altitude
Rises 18:18:16 0° 349° (N) 2,648 6.4 -15.3°
Reaches altitude 10° 18:20:24 10° 349° (NNW) 1,755 5.5 -15.7°
Maximum altitude 18:24:15 78° 263° (W) 532 2.8 -16.4°
Drops below altitude 10° 18:28:03 10° 177° (S) 1,732 5.4 -17.0°
Sets 18:30:10 0° 176° (S) 2,609 6.3 -17.4°
